Regional Weather Roundup
Issued by NWS

Home | Current Version | Previous Version | Graphics & Text | Print | Product List | Glossary On
Versions: 1 2 3 4 5 6 7 8 9 10 11 12 13 14 15 16 17 18 19 20 21 22 23 24 25 26 27 28 29 30 31 32 33 34 35 36 37 38 39 40 41 42 43 44 45 46 47 48 49
000
ASUS45 KSLC 311510
RWRUT

UTAH REGIONAL WEATHER ROUNDUP
NATIONAL WEATHER SERVICE SALT LAKE CITY UT
900 AM MDT TUE MAR 31 2015

UTZ001>011-023>025-311600-

NORTHERN UTAH

CITY           SKY/WX    TMP DP  RH WIND       PRES   REMARKS
BRIGHAM CITY   MOSUNNY   42  31  64 CALM      29.99R
HILL AFB       SUNNY     53  22  30 E15       29.98F
LOGAN          SUNNY     41  31  67 CALM      29.98F
OGDEN          MOSUNNY   53  23  31 S7        29.97F
PROVO AIRPORT  MOSUNNY   48  28  46 VRB5      30.04F
SALT LAKE CITY PTSUNNY   59  28  30 SE14      29.96F
VERNAL         SUNNY     48  19  31 NE3       30.11S
WENDOVER       CLOUDY    48  23  37 NW3       29.96F
HEBER CITY     SUNNY     37  28  70 CALM      30.10S
WEST JORDAN    SUNNY     61  28  29 S24       30.00S

$$

UTZ012>022-026-027-311600-

SOUTHERN/CENTRAL UTAH

CITY           SKY/WX    TMP DP  RH WIND       PRES   REMARKS
BLANDING       MOSUNNY   55  23  28 CALM      30.23S
BRYCE CANYON   SUNNY     43  24  47 CALM      30.22S
CEDAR CITY     SUNNY     58  21  24 SE3       30.09S
DELTA          SUNNY     57  20  24 S6        30.04S
HANKSVILLE     SUNNY     48  27  43 CALM      30.09S
MILFORD        SUNNY     50  24  36 S9        30.06F
MOAB/CYNLANDS  SUNNY     56  21  25 SE7       30.07R
PRICE          SUNNY     54  20  26 CALM      30.11S
ST GEORGE      SUNNY     55  25  30 CALM      30.04S
KANAB          SUNNY     48  28  46 CALM      30.16S

$$

REGIONAL REPORTS     COLORADO/ARIZONA

CITY           SKY/WX    TMP DP  RH WIND       PRES   REMARKS
CRAIG, CO      SUNNY     39  25  57 CALM      30.15S
GRAND JUNCTION SUNNY     53  23  31 E10       30.10S
RIFLE          SUNNY     42  23  46 CALM      30.16S
MONTROSE       SUNNY     51  22  31 CALM      30.17S
CORTEZ         SUNNY     48  25  40 CALM      30.18S
PAGE, AZ       SUNNY     59  24  26 E5        30.09R
GRAND CANYON   SUNNY     44  25  47 CALM      30.21S
KINGMAN        SUNNY     66  32  28 E3        30.04R
FLAGSTAFF      SUNNY     53  26  35 CALM      30.23R

$$

REGIONAL REPORTS    NEVADA/IDAHO/WYOMING

CITY           SKY/WX    TMP DP  RH WIND       PRES   REMARKS
LAS VEGAS, NV  MOSUNNY   70  25  18 S5        29.90R
ELY            MOSUNNY   52  14  22 S12       30.08S
ELKO           PTSUNNY   42  16  34 CALM      29.98F
POCATELLO, ID  SUNNY     48  28  46 N6        29.91F
BURLEY         CLOUDY    58  26  29 SW9       29.87R
EVANSTON, WY   SUNNY     47  18  31 S6        30.10S
ROCK SPRINGS   MOSUNNY   41  15  35 CALM      30.11F

$$


USA.gov is the U.S. government's official web portal to all federal, state and local government web resources and services.